Temp
52 52 52 51 52 52 47 38 31 43 50 33 32 31 36 43 43 48 45 45 45 45 45 49 53 54 60 67 66 59 61 54 47 54 65 70 66 59 57 46 47 46 44 40
51 51 51 51 51 51 39 36 36 42 42 26 28 36 37 41 39 41 43 44 46 49 42 36 53 57 67 67 66 59 59 49 44 49 57 60 61 61 60 57 52 46 39 37
51 51 51 51 51 51 41 37 30 34 37 37 33 32 33 34 44 42 45 44 47 43 42 50 46 56 64 65 65 59 64 51 51 43 52 58 56 59 61 57 47 44 42 40
50 51 51 50 51 51 42 36 33 34 27 32 34 37 37 35 35 45 47 44 43 43 40 43 50 55 60 64 62 59 59 50 54 56 60 61 59 60 59 57 56 49 44 43
50 50 51 50 51 50 39 33 33 34 31 36 33 34 34 34 36 39 38 41 45 46 42 45 43 51 53 57 58 57 56 50 55 54 61 61 57 59 56 55 52 49 48 44
50 50 50 50 50 48 38 40 39 36 35 31 32 33 36 36 40 42 44 43 43 41 44 52 55 56 58 57 55 55 56 51 50 48 57 57 50 54 54 53 55 51 42 47
48 49 50 50 50 48 38 40 39 34 30 32 33 38 39 38 39 37 43 45 41 50 57 56 56 58 59 57 56 61 55 54 51 47 51 38 54 63 61 56 56 56 53 52
49 49 49 49 50 50 40 42 38 35 30 34 36 37 37 39 40 39 41 44 48 53 50 47 46 49 52 56 60 60 61 53 46 41 43 51 56 58 56 54 48 55 51 52
47 45 48 49 49 50 43 42 42 36 30 31 41 36 38 32 33 37 41 49 55 53 46 44 40 39 47 49 55 60 59 57 49 41 40 38 52 58 63 58 41 55 54 52
47 47 48 49 49 50 44 40 44 37 31 35 38 32 33 38 36 34 39 48 49 53 42 42 40 43 54 47 47 49 48 49 46 41 39 47 58 62 62 49 46 56 56 54
48 48 49 49 49 49 45 42 44 38 34 34 41 42 36 36 36 33 39 42 46 45 42 42 43 45 50 50 54 53 49 46 46 45 40 41 63 61 56 55 59 58 56 55
48 48 48 49 49 49 47 39 44 44 36 34 42 44 47 45 47 40 36 38 38 45 44 44 46 46 50 50 46 58 50 55 50 51 50 57 65 60 59 63 58 57 56 55
48 48 48 49 49 49 47 42 43 42 36 34 36 38 46 51 50 49 34 39 47 49 48 49 48 44 50 46 48 52 56 59 53 54 56 58 58 61 64 63 60 60 56 51
48 48 48 49 49 50 48 41 43 41 37 31 35 49 45 52 50 48 45 43 45 44 43 46 47 45 54 50 55 52 55 58 52 49 53 58 58 62 62 62 61 56 54 52
48 48 48 49 49 48 45 42 42 43 37 32 34 41 46 50 51 48 44 42 41 40 43 47 45 48 52 51 52 51 57 54 51 48 59 54 56 61 63 59 54 54 52 50
48 48 49 48 48 48 40 36 42 45 43 36 30 42 44 50 49 44 45 43 42 43 48 49 50 53 52 47 47 59 60 61 62 56 57 61 59 60 62 56 56 55 52 51
48 48 49 48 48 41 36 34 42 46 45 35 30 35 46 51 50 47 47 46 47 48 51 49 50 51 53 47 48 59 62 60 61 61 59 53 57 55 58 57 55 54 53 52
48 48 48 48 48 46 39 42 47 45 39 38 32 35 39 51 45 46 52 49 50 51 51 51 50 51 50 46 56 60 61 61 61 62 66 59 59 57 55 55 53 49 48 48
48 48 48 42 38 34 37 48 48 44 39 32 35 34 36 49 47 47 49 52 45 51 48 50 51 48 44 54 57 59 60 61 58 60 59 57 54 54 52 52 50 48 47 46
47 42 37 30 40 47 47 42 38 37 37 37 34 41 36 43 47 44 45 46 45 41 47 50 47 46 54 56 60 63 59 61 60 53 52 53 52 51 51 51 52 50 48 46
38 37 35 41 46 41 38 32 30 34 33 37 38 39 39 47 43 39 46 42 46 39 46 46 43 44 53 56 57 58 63 62 62 61 59 58 55 53 51 51 50 49 48 46
40 39 41 40 37 34 31 30 33 32 33 39 39 41 44 43 48 42 43 42 43 39 48 43 40 49 55 55 55 55 60 60 59 60 58 57 57 55 53 50 49 48 46 38
38 37 35 33 30 27 27 26 29 30 36 41 44 41 45 45 48 42 42 38 37 48 40 42 46 52 55 55 56 54 57 59 58 57 57 56 54 53 51 47 46 38 36 36
33 29 26 27 24 30 32 32 34 37 38 42 42 43 45 46 42 42 39 42 43 36 35 43 47 54 54 55 55 56 55 57 55 55 54 52 48 41 40 40 38 37 35 34
30 30 24 28 34 35 38 40 41 42 45 44 40 42 46 45 42 44 42 37 34 38 40 45 52 55 54 54 55 54 54 53 53 54 50 44 43 42 36 37 40 38 34 34
33 31 29 33 32 34 37 39 41 44 44 45 45 41 42 45 44 42 39 37 37 44 46 51 56 55 55 55 55 54 55 55 54 52 48 47 43 41 39 40 38 36 36 33
32 30 35 34 34 35 38 41 42 46 45 40 40 38 40 45 42 43 45 42 45 47 48 56 58 55 55 55 54 54 54 52 50 49 47 45 44 41 40 36 36 37 36 35
MSLP
1018.05 1018.23 1018.52 1018.86 1019.16 1019.61 1020.30 1020.90 1020.56 1019.18 1019.38 1020.59 1019.84 1018.88 1018.45 1017.95 1016.66 1016.30 1015.64 1014.27 1012.55 1010.64 1009.27 1006.61 1004.50 1003.00 1001.58 1000.99 1001.94 1003.02 1003.37 1004.02 1004.34 1003.51 1002.32 1001.91 1002.25 1003.03 1004.23 1006.42 1008.54 1010.67 1012.99 1015.41
1017.07 1017.34 1017.62 1018.00 1018.43 1019.00 1019.98 1020.15 1020.06 1018.93 1019.00 1019.06 1018.96 1018.78 1018.57 1018.10 1017.50 1016.52 1015.76 1014.25 1013.00 1011.61 1010.89 1009.68 1004.52 1002.29 1000.82 1000.53 1001.17 1001.89 1003.00 1003.71 1004.31 1003.75 1002.83 1002.03 1002.13 1002.58 1003.53 1005.26 1007.38 1010.21 1012.86 1016.04
1015.81 1016.28 1016.71 1017.18 1017.61 1018.28 1019.38 1019.93 1019.67 1019.43 1018.97 1018.30 1018.37 1018.61 1018.33 1017.82 1016.87 1015.95 1015.44 1014.21 1013.58 1012.73 1011.30 1008.89 1005.53 1002.60 1000.90 1000.31 1000.88 1000.88 1001.67 1002.76 1003.35 1003.24 1002.37 1001.83 1002.04 1002.38 1003.29 1004.84 1007.37 1010.17 1012.42 1015.37
1014.37 1014.95 1015.56 1016.18 1016.87 1017.60 1018.85 1019.00 1018.27 1017.77 1017.78 1017.82 1018.05 1017.93 1017.45 1016.90 1016.33 1015.24 1014.65 1013.17 1012.65 1012.63 1011.62 1008.83 1005.73 1003.71 1001.72 1000.52 1000.31 1001.32 1001.66 1002.52 1002.80 1002.58 1002.13 1001.78 1001.53 1002.11 1003.13 1004.52 1006.13 1008.41 1011.65 1013.36
1012.73 1013.60 1014.15 1015.06 1015.99 1016.99 1018.27 1018.01 1018.04 1017.51 1017.15 1017.15 1017.53 1017.17 1016.57 1016.53 1016.30 1015.74 1014.24 1012.95 1012.60 1012.23 1010.82 1009.28 1006.72 1005.27 1003.72 1001.13 1000.78 1001.03 1001.49 1002.27 1002.46 1002.63 1002.07 1001.72 1001.94 1002.07 1003.08 1004.65 1006.69 1008.93 1011.57 1014.10
1011.07 1012.03 1013.09 1013.98 1014.97 1016.27 1016.60 1017.17 1017.16 1016.82 1016.18 1016.45 1016.65 1016.16 1016.09 1015.78 1015.70 1014.47 1013.69 1013.53 1013.20 1011.72 1009.56 1008.79 1006.97 1005.60 1003.83 1002.92 1002.38 1000.80 1001.14 1001.78 1002.33 1002.70 1002.09 1001.86 1002.03 1002.35 1003.36 1004.98 1005.98 1008.34 1011.37 1012.41
1009.86 1010.63 1011.65 1012.75 1013.83 1014.72 1015.82 1016.45 1016.73 1016.97 1016.25 1015.81 1015.40 1015.50 1015.61 1015.21 1014.95 1014.26 1013.28 1013.24 1012.57 1009.25 1008.78 1008.05 1005.92 1003.52 1001.99 1001.38 1000.85 1000.03 1000.48 1001.19 1002.11 1002.99 1002.71 1002.55 1002.04 1001.54 1002.53 1004.42 1006.77 1008.21 1009.65 1012.08
1008.26 1009.16 1010.33 1011.56 1012.83 1013.77 1015.00 1015.59 1016.32 1016.40 1015.98 1015.52 1015.12 1015.09 1015.14 1014.91 1014.57 1013.77 1012.81 1011.50 1010.93 1010.48 1009.78 1008.05 1004.44 1001.87 1000.96 999.99 999.44 998.94 998.90 1000.84 1002.52 1003.37 1003.75 1003.00 1002.98 1002.94 1003.50 1004.47 1008.44 1009.20 1010.60 1013.10
1007.33 1008.19 1007.63 1010.48 1011.94 1013.06 1014.48 1014.85 1015.76 1016.45 1015.43 1014.40 1014.17 1014.38 1014.42 1014.49 1014.03 1013.00 1011.06 1009.92 1009.61 1009.82 1009.44 1007.82 1005.16 1002.26 1000.30 999.85 999.27 998.89 999.32 999.78 1001.87 1003.55 1003.97 1003.61 1003.19 1002.89 1003.53 1004.72 1009.32 1010.36 1010.07 1012.38
1006.83 1007.96 1008.85 1010.05 1011.26 1012.43 1013.62 1014.24 1014.92 1015.87 1015.43 1013.86 1013.47 1013.62 1013.73 1013.78 1013.72 1012.99 1011.81 1009.44 1008.65 1008.71 1008.93 1007.04 1005.00 1002.12 999.51 999.51 999.26 999.53 1000.09 1000.69 1001.89 1003.40 1003.64 1003.18 1002.33 1002.75 1003.22 1004.31 1007.18 1009.63 1010.74 1011.77
1006.91 1007.96 1008.91 1009.87 1010.94 1011.92 1012.90 1013.67 1014.46 1015.34 1015.01 1013.60 1012.71 1012.50 1012.89 1013.09 1013.35 1012.89 1011.98 1010.95 1009.28 1008.49 1007.37 1006.06 1003.87 1001.18 999.24 998.81 998.47 998.56 999.54 1000.58 1001.71 1002.77 1002.94 1002.53 1001.93 1002.92 1002.85 1003.79 1005.50 1007.84 1010.67 1012.22
1007.01 1007.95 1008.84 1009.73 1010.51 1011.42 1012.62 1013.53 1013.74 1014.77 1014.77 1013.30 1012.18 1011.92 1011.72 1011.82 1012.14 1012.59 1012.91 1011.56 1010.11 1007.45 1005.93 1004.76 1002.83 1000.75 999.01 998.53 998.85 998.30 999.07 999.08 1000.23 1001.52 1001.48 1000.52 1000.83 1001.37 1002.30 1003.10 1005.53 1008.58 1010.16 1012.57
1007.08 1007.90 1008.72 1009.47 1010.18 1010.99 1011.79 1012.83 1013.27 1013.86 1013.51 1012.99 1012.38 1011.28 1010.36 1010.64 1010.84 1011.97 1012.66 1010.79 1009.47 1007.15 1007.42 1005.48 1002.95 1000.69 998.59 998.67 998.32 998.33 998.34 998.56 999.88 1000.86 1001.40 1001.10 1001.56 1002.29 1002.57 1003.77 1005.78 1008.17 1010.29 1012.49
1007.18 1007.86 1008.53 1009.14 1009.70 1010.52 1011.68 1012.49 1012.60 1012.39 1012.60 1012.31 1010.53 1009.43 1009.40 1009.18 1009.29 1009.86 1010.00 1010.30 1008.60 1008.95 1008.46 1005.78 1003.28 1001.09 998.09 997.77 997.24 997.74 997.78 998.32 999.93 1001.71 1001.97 1002.21 1003.02 1002.45 1003.66 1005.48 1006.92 1009.11 1011.20 1012.67
1007.35 1007.88 1008.45 1009.07 1009.77 1010.56 1011.57 1012.21 1011.96 1011.88 1012.42 1011.85 1010.82 1009.13 1006.38 1006.35 1007.33 1007.92 1009.10 1009.79 1009.64 1009.38 1007.47 1004.78 1002.61 1000.10 998.40 997.54 997.07 997.31 997.20 998.19 999.34 1000.46 1000.90 1001.06 1003.10 1003.41 1004.30 1005.76 1007.81 1009.36 1011.47 1013.99
1007.65 1008.16 1008.73 1009.46 1010.15 1010.80 1011.80 1012.28 1011.44 1011.51 1011.88 1011.76 1010.47 1007.33 1005.33 1004.63 1005.04 1006.50 1007.54 1007.81 1008.71 1008.32 1005.62 1003.51 1001.47 999.47 998.58 997.74 997.32 996.54 996.36 996.94 997.07 999.48 1000.44 1000.90 1002.24 1003.99 1004.63 1006.02 1008.23 1009.88 1011.60 1013.35
1008.43 1009.00 1009.25 1009.77 1010.29 1010.81 1011.32 1011.22 1011.09 1010.81 1011.66 1011.41 1010.04 1007.13 1004.47 1003.51 1004.57 1005.68 1006.12 1006.78 1006.51 1005.76 1003.97 1002.25 1000.89 999.49 998.26 997.72 996.98 996.26 996.23 997.02 997.78 998.73 1000.44 1003.47 1003.59 1004.96 1006.43 1007.10 1009.04 1010.63 1012.34 1013.75
1009.13 1009.29 1009.43 1010.00 1010.56 1010.92 1010.84 1010.35 1010.34 1011.09 1011.27 1010.75 1009.09 1006.02 1004.18 1002.45 1002.52 1002.86 1003.01 1003.71 1004.15 1002.86 1002.04 1000.83 999.90 999.34 998.69 997.70 996.35 995.96 996.52 997.31 998.09 998.90 998.78 1000.72 1003.65 1005.63 1007.28 1008.47 1009.85 1011.85 1013.42 1014.76
1009.82 1009.86 1009.97 1010.31 1010.73 1010.95 1010.36 1009.99 1010.04 1010.61 1011.07 1009.53 1008.06 1005.86 1003.37 1001.51 1001.50 1001.63 1001.92 1002.42 1002.21 1001.26 1000.94 1000.33 999.92 999.52 998.65 997.45 996.53 996.45 996.92 997.39 999.05 1000.40 1001.14 1002.70 1004.17 1006.10 1007.72 1009.02 1010.57 1011.68 1013.91 1015.14
1010.55 1010.82 1011.05 1010.76 1010.17 1010.17 1010.00 1009.88 1010.05 1009.99 1009.42 1008.77 1006.92 1005.44 1004.33 1003.16 1001.56 1002.18 1002.62 1002.66 1002.04 1001.25 1000.10 999.53 999.78 999.23 997.46 997.92 997.73 995.97 996.73 997.60 998.88 1000.85 1003.09 1004.08 1005.26 1006.41 1007.95 1008.96 1010.16 1011.40 1013.49 1015.36
1010.94 1011.02 1010.91 1010.20 1009.71 1009.61 1009.42 1008.77 1008.71 1007.92 1007.68 1006.92 1005.48 1004.76 1003.88 1003.17 1002.45 1002.50 1002.62 1002.62 1001.98 1001.01 999.98 999.64 1000.12 999.62 997.77 997.73 997.86 997.47 996.71 997.27 997.78 997.84 999.57 1001.39 1003.17 1005.69 1007.87 1009.80 1010.89 1012.25 1013.82 1015.54
1010.50 1010.94 1010.61 1010.36 1009.81 1008.84 1008.33 1007.62 1007.24 1006.69 1005.61 1004.32 1003.50 1003.13 1002.97 1003.27 1002.68 1002.46 1002.91 1002.81 1002.01 1000.72 999.74 1000.05 999.59 998.55 998.01 998.72 998.42 997.91 998.09 998.78 999.64 1000.61 1001.99 1003.69 1004.94 1006.30 1007.94 1009.68 1011.43 1013.00 1014.51 1016.30
1010.05 1010.21 1010.42 1009.74 1009.13 1008.31 1007.71 1006.67 1006.04 1005.37 1004.40 1003.03 1002.85 1002.45 1002.37 1001.87 1001.61 1002.11 1002.57 1002.74 1002.08 1000.55 1000.04 1000.16 998.48 997.60 998.00 998.38 998.03 998.55 999.00 999.63 1000.47 1001.92 1003.08 1004.38 1006.06 1007.46 1008.61 1010.54 1012.20 1013.62 1015.39 1017.04
1010.40 1009.90 1009.16 1009.29 1008.25 1007.30 1006.47 1005.27 1004.11 1003.64 1003.42 1002.61 1002.59 1001.79 1000.77 1000.50 1000.85 1001.40 1001.92 1002.53 1002.32 1001.03 999.96 998.73 997.09 996.73 997.24 997.79 998.18 998.68 999.78 1000.38 1001.36 1002.65 1004.20 1005.52 1006.84 1008.60 1009.90 1011.11 1012.28 1013.81 1015.88 1017.56
1010.87 1010.26 1009.02 1007.27 1005.93 1005.65 1004.95 1004.31 1003.38 1002.33 1002.33 1002.22 1002.74 1001.89 1000.92 999.95 1000.14 1000.44 1001.32 1001.62 1000.71 999.09 997.73 996.58 996.08 996.39 997.08 997.90 998.56 999.34 1000.26 1001.11 1002.16 1003.37 1004.77 1006.39 1007.75 1009.14 1010.96 1012.30 1013.37 1014.71 1016.36 1017.73
1010.51 1009.83 1008.73 1007.61 1006.82 1005.52 1004.76 1003.91 1002.56 1001.70 1001.62 1001.53 1001.85 1001.36 999.63 998.71 998.20 999.02 999.83 1000.64 999.68 997.41 996.15 995.29 995.67 996.57 997.55 998.33 998.86 999.62 1000.51 1001.47 1002.63 1003.91 1005.36 1006.75 1008.29 1009.63 1011.36 1012.90 1014.07 1015.23 1016.29 1017.77
1009.79 1008.66 1007.99 1007.44 1006.77 1005.77 1004.48 1003.51 1002.55 1001.05 1001.12 1001.61 1001.68 999.96 999.36 998.51 997.46 997.70 997.27 997.32 996.74 995.73 995.47 995.03 995.15 995.76 997.14 998.21 999.17 1000.04 1001.06 1002.24 1003.48 1004.80 1006.30 1007.63 1009.06 1010.40 1011.90 1013.52 1014.97 1015.79 1016.94 1017.94
Wind_Speed
19 19 20 20 16 13 6 3 5 4 9 6 4 10 2 6 13 12 10 9 9 13 11 10 10 15 10 12 12 16 12 7 6 9 8 9 10 11 8 6 3 4 4 2
21 19 20 21 18 15 5 3 3 3 3 10 10 1 5 6 6 7 5 8 3 7 11 11 9 13 12 9 20 17 11 5 1 8 6 2 11 6 5 5 4 4 7 4
25 22 21 21 20 18 6 4 5 4 5 4 8 11 12 12 11 16 14 15 16 17 15 14 12 5 10 8 11 8 17 6 9 8 7 4 8 7 6 8 5 7 4 13
28 25 24 23 21 19 7 6 5 6 7 10 9 12 3 10 5 11 12 8 23 16 10 16 7 9 8 5 9 8 9 8 7 8 9 5 6 8 7 6 7 8 17 18
30 29 27 25 24 21 8 6 5 3 4 11 12 11 11 16 15 10 11 17 18 12 16 15 25 15 9 8 3 9 6 7 8 7 7 5 5 5 10 5 13 15 18 12
29 31 29 27 26 20 5 7 3 3 6 6 10 12 14 15 14 13 22 21 18 19 26 18 20 23 23 20 9 7 11 8 6 5 3 3 2 9 6 5 12 27 13 11
30 32 32 30 28 26 3 2 2 5 3 9 10 9 11 14 15 18 20 14 16 13 14 22 23 24 22 16 17 10 8 7 5 4 3 2 8 7 20 20 16 12 18 29
26 32 34 31 29 28 5 4 4 2 6 5 8 9 8 10 13 17 20 23 23 18 15 15 10 3 4 9 9 6 8 6 5 7 2 1 3 8 13 19 4 16 24 23
25 17 35 29 28 27 9 6 5 1 1 7 9 6 5 3 6 10 17 20 15 6 5 8 6 6 6 5 4 4 6 9 8 4 5 6 9 4 17 13 6 14 30 28
27 27 25 26 25 26 11 3 7 4 5 5 6 5 6 5 3 4 9 5 6 8 9 8 6 7 8 5 9 7 5 4 7 5 4 5 8 21 10 6 12 22 24 29
24 24 23 23 24 24 13 4 6 5 4 5 7 7 6 3 4 5 6 5 9 8 10 5 7 6 6 5 7 9 7 7 4 4 5 3 15 8 10 6 21 28 21 23
22 23 23 24 23 22 18 3 4 7 6 5 3 7 13 12 12 3 2 7 7 5 4 4 5 5 4 7 4 2 3 8 9 8 7 5 22 6 9 24 30 21 25 20
21 21 21 21 22 23 16 4 5 9 3 5 4 11 15 14 16 12 6 5 11 3 7 3 5 6 3 6 6 5 3 5 6 5 5 10 9 9 19 25 24 25 22 27
19 20 20 20 21 23 17 3 3 2 1 3 6 4 11 11 18 22 23 18 20 12 9 5 5 4 1 5 6 6 6 6 7 6 6 14 7 15 19 20 26 23 23 27
17 18 19 20 21 20 9 2 3 3 3 3 5 10 24 19 20 17 20 20 20 6 5 4 5 4 2 2 4 3 5 8 7 7 15 8 10 19 26 29 26 28 25 21
16 17 17 16 16 15 4 2 4 6 3 4 4 6 10 4 16 18 15 17 10 6 5 4 5 7 1 3 3 3 5 5 13 8 4 9 18 19 26 29 27 24 27 25
11 13 13 13 14 4 4 5 3 4 6 4 4 5 5 6 9 7 7 13 7 7 5 5 4 4 3 2 4 5 10 11 14 23 26 16 21 16 19 25 23 25 22 22
12 11 9 10 10 2 3 3 7 4 3 3 4 5 4 7 5 5 7 7 8 5 4 4 1 4 2 3 3 12 12 18 22 24 20 19 20 20 21 23 25 23 21 20
13 11 10 5 3 1 4 5 10 4 3 3 4 3 2 4 3 3 2 2 4 3 4 4 2 2 3 6 8 17 21 14 18 16 23 27 27 25 25 25 24 25 20 20
11 2 2 3 3 6 6 4 4 6 5 6 4 2 4 4 2 2 4 2 2 3 6 3 3 3 9 10 12 15 13 23 27 27 20 22 23 25 25 23 22 23 21 20
1 2 4 3 7 2 4 4 4 4 3 4 5 7 3 0 2 4 2 2 3 4 4 4 3 2 11 3 5 6 20 25 27 31 31 30 31 26 23 19 19 20 22 20
2 1 2 2 2 3 4 3 2 4 4 4 3 4 3 1 4 4 2 1 2 6 2 3 2 5 8 9 9 7 13 15 16 20 22 21 23 24 22 21 19 19 18 17
2 2 3 1 3 4 5 6 4 4 4 3 3 3 4 5 2 4 4 0 4 4 4 4 7 6 9 10 11 11 11 17 20 18 19 21 20 19 21 19 15 16 17 16
3 3 4 5 5 4 5 4 4 4 3 3 5 4 5 4 3 4 5 3 3 5 6 9 4 12 11 9 9 15 17 19 20 21 20 20 19 14 12 14 18 20 18 16
2 2 5 5 4 5 7 7 6 5 4 4 3 5 4 4 5 3 5 3 5 5 7 5 8 13 12 13 14 15 16 16 18 19 18 17 18 18 15 14 16 16 16 17
3 5 4 4 8 5 6 7 6 3 3 2 4 2 4 5 6 6 6 8 8 5 4 5 13 15 14 13 13 14 15 17 17 16 17 18 18 19 18 15 15 16 18 17
5 5 6 8 8 8 8 4 8 2 2 3 1 4 5 4 2 5 5 7 6 4 2 8 15 19 17 14 14 14 15 15 16 16 15 15 16 18 17 17 12 14 13 13
Wind_Direction
254 245 238 229 218 213 187 179 216 277 146 185 210 229 226 341 292 313 303 291 265 264 339 294 200 206 208 186 172 183 184 190 243 234 259 208 202 197 155 130 205 81 123 197
243 240 234 222 212 195 137 214 216 293 148 207 224 202 219 247 290 266 259 271 300 339 328 311 271 211 219 238 180 184 165 216 142 332 343 135 204 181 159 121 88 166 132 202
234 230 225 217 208 199 156 176 204 229 219 208 204 216 236 250 247 267 240 260 268 287 293 271 278 301 229 217 190 189 153 164 183 191 208 166 167 188 172 140 126 148 160 141
229 222 217 211 204 198 168 191 206 206 191 217 210 205 243 227 257 227 264 259 231 241 259 306 219 358 309 210 220 149 142 178 167 210 220 203 188 188 178 154 162 150 165 162
223 220 211 204 201 190 198 206 194 218 206 201 196 205 210 244 257 252 271 251 255 275 262 253 295 314 331 231 174 152 187 210 151 213 210 201 207 211 107 88 91 77 128 125
219 214 209 199 198 182 191 201 245 298 195 170 180 213 227 234 243 250 246 256 281 277 265 278 275 285 274 258 284 172 156 146 129 213 203 284 258 170 131 107 137 138 149 168
212 214 202 196 193 190 127 174 187 220 255 195 183 181 201 222 245 261 281 288 268 247 301 309 279 258 256 245 249 219 142 116 118 171 77 145 257 172 148 139 147 143 123 150
216 204 197 190 191 190 179 139 179 174 215 205 175 188 221 244 250 263 264 265 252 282 295 293 291 262 193 230 206 164 134 116 91 120 111 64 34 135 132 140 68 140 131 138
185 191 177 180 187 189 176 195 140 185 206 206 182 191 205 233 251 270 263 269 256 253 286 268 248 229 183 189 133 97 85 117 117 111 133 171 215 137 123 109 103 161 143 147
177 182 178 177 181 187 178 162 173 137 239 240 150 172 177 177 214 266 294 304 250 251 251 246 242 248 170 153 149 154 96 67 139 117 148 256 172 155 175 109 193 165 160 153
170 175 177 180 187 189 174 176 157 151 260 262 193 174 158 157 204 202 330 4 240 238 204 211 236 233 209 116 167 157 148 123 157 111 106 189 165 182 165 178 144 154 162 156
171 175 180 185 189 190 171 174 168 214 254 256 257 226 217 212 216 171 201 271 312 258 189 242 269 259 131 139 179 102 175 175 150 170 204 213 168 157 133 138 146 155 148 145
173 177 183 189 190 186 171 165 181 204 203 262 185 225 233 229 219 174 216 262 233 65 334 313 269 269 127 144 209 114 119 126 113 110 1 139 130 113 135 142 146 148 140 140
169 176 179 182 184 177 164 172 213 142 129 269 279 243 233 207 210 207 213 238 279 307 315 260 255 258 232 192 159 128 183 114 126 64 77 82 32 132 139 133 135 128 139 144
163 170 172 171 166 172 159 189 237 187 165 265 276 279 264 250 217 206 207 221 237 276 282 256 238 259 343 320 80 164 171 154 150 186 175 125 162 147 140 138 141 141 139 142
135 141 139 145 164 147 109 217 241 206 140 290 295 278 270 282 172 183 208 209 210 227 262 269 257 244 194 107 155 206 145 133 143 145 155 137 135 148 148 138 145 143 142 143
114 133 152 151 153 129 159 194 135 110 148 236 259 253 248 210 155 178 195 187 204 215 232 230 233 266 353 128 167 186 140 126 112 116 109 100 145 149 142 135 136 136 137 139
119 126 133 132 142 16 322 248 197 128 251 249 266 274 266 200 165 177 183 170 188 236 231 281 287 301 307 245 247 133 124 130 131 151 144 137 124 125 128 131 130 132 136 138
96 95 88 51 50 211 242 257 161 141 223 262 227 280 298 333 154 143 96 8 219 233 203 219 98 293 257 325 166 136 142 148 138 116 120 129 135 137 140 140 140 135 145 143
117 98 155 273 206 302 269 173 195 195 199 225 254 278 263 327 138 77 88 273 268 223 221 144 70 286 282 285 289 155 134 131 129 122 132 136 140 146 151 157 150 145 148 146
110 162 212 247 280 233 202 219 208 189 199 205 231 205 216 340 291 111 117 184 253 230 215 112 129 202 270 288 159 206 144 151 158 158 157 156 150 151 147 148 146 146 148 150
217 151 268 243 250 214 228 210 204 226 243 197 203 201 158 331 233 100 15 267 315 243 164 74 209 222 197 183 160 125 137 136 124 135 139 143 146 147 145 144 145 147 138 133
345 216 190 206 251 245 197 206 204 226 209 220 178 191 195 215 178 94 131 64 242 341 69 224 223 170 152 162 125 103 112 121 123 127 134 137 138 137 140 137 136 127 130 139
318 301 277 189 222 239 206 241 232 204 200 132 25 289 224 171 128 137 127 126 277 231 142 237 217 165 151 141 133 123 134 132 131 134 136 136 134 127 125 130 139 137 140 144
268 268 257 252 292 310 284 266 267 260 164 94 6 279 246 230 118 148 131 60 274 232 217 216 168 156 144 144 145 136 138 136 135 140 136 133 135 133 124 132 136 131 134 141
243 240 262 274 274 291 315 316 279 200 151 196 137 268 255 242 141 139 173 151 230 245 220 170 147 149 150 149 141 137 139 140 141 139 140 138 139 141 136 131 134 140 144 147
227 242 227 256 271 268 286 298 292 305 66 108 303 279 220 300 226 150 195 181 225 230 222 156 157 150 148 141 132 132 131 132 132 134 133 130 126 127 128 131 141 142 144 145